BEIDOU-2 IGSO-7 (C16)

Last updated on Wed Aug 26 2026 00:04:16 GMT+0000 (Coordinated Universal Time)

1 43539U 18057A 26236.71204624 -.00000163 00000+0 00000+0 0 9999 2 43539 55.2149 162.4804 0108043 236.8931 302.0539 1.00283489 29812
UTC large
Height (km)
Speed (km/s)
/
Latitude / Longitude
Inclination (degrees)
Orbital Period (minutes)
Azimuth
Elevation
Range (km)
Doppler Factor

Next 0 passes for location: London (51.5072 / 0.1276)

No passes found over London.
BEIDOU-2 IGSO-7 (C16)